Wind_Speed
37 37 39 41 41 39 39 39 41 43 46 49 50 48 48 48 48 46 45 41 39 34 32 30 27 26 27 28 27 26 26 26 25 25 24 24 23 22 21 21 21 22 23
39 39 41 42 41 41 40 39 40 44 48 51 53 52 52 52 53 49 41 41 38 35 34 33 31 30 29 29 28 28 29 29 27 25 24 24 24 23 22 23 24 24 24
37 37 37 36 36 38 40 41 43 45 49 52 54 55 54 53 52 50 45 37 34 35 36 38 36 34 32 31 31 33 32 30 27 25 24 24 25 25 24 24 26 27 26
37 38 38 38 39 41 43 44 47 50 52 54 56 55 54 53 52 49 46 42 40 39 41 42 42 38 35 34 36 37 35 31 28 26 25 27 28 28 28 27 27 27 27
36 38 38 39 40 42 44 47 49 51 53 55 57 57 56 54 51 48 45 43 42 44 47 47 46 42 38 38 38 37 33 30 29 29 29 30 30 29 28 29 29 28 27
37 39 40 41 42 43 46 47 49 51 53 54 54 53 50 47 47 46 45 43 42 43 45 48 48 44 42 39 36 32 31 30 30 32 32 32 31 31 29 29 31 31 30
42 43 43 44 44 45 45 46 46 47 47 47 47 45 42 40 41 43 44 43 40 36 38 44 47 45 42 40 36 32 32 32 32 33 33 33 32 30 29 29 31 32 32
47 47 46 46 46 45 44 42 42 41 41 41 41 40 37 34 35 37 39 40 36 31 34 40 44 44 42 40 36 33 32 32 33 33 33 32 32 31 29 29 30 32 33
48 47 46 46 45 44 42 41 39 37 37 37 34 30 28 27 29 29 30 30 28 31 36 39 39 39 38 37 36 34 33 33 34 35 35 35 33 31 29 29 29 30 32
45 44 42 40 39 39 38 37 35 32 31 29 25 21 20 19 20 21 23 25 30 34 37 40 39 37 35 35 34 33 34 36 37 36 35 34 33 31 30 30 29 29 30
41 41 38 35 34 34 34 33 31 29 26 22 17 14 14 17 18 19 21 23 27 30 31 32 32 31 31 32 32 33 35 36 36 36 35 34 33 32 31 30 30 29 29
36 36 34 33 31 31 30 29 28 27 25 20 15 13 14 16 18 19 22 24 25 27 29 29 29 30 30 31 33 33 34 34 34 33 33 32 31 31 30 30 30 29 28
32 31 31 30 29 28 28 28 28 28 27 24 21 19 18 19 20 22 24 26 27 29 30 31 31 32 32 32 33 33 34 34 33 33 32 32 31 31 30 30 29 29 29
31 29 28 29 28 27 26 26 28 30 31 30 28 26 25 24 23 24 25 27 28 29 30 31 32 33 34 34 35 36 36 36 35 35 33 32 32 32 31 31 30 30 30
29 27 26 26 27 27 27 27 29 30 33 34 34 34 33 32 30 29 30 31 31 31 31 33 33 34 35 35 35 35 35 35 35 35 34 32 32 32 32 32 32 31 30
25 24 24 25 27 28 29 29 30 30 31 33 35 37 38 39 38 38 37 37 37 37 37 37 38 38 38 38 37 37 36 35 35 34 34 35 34 33 32 31 30 30 29
24 25 26 27 28 29 30 31 32 32 34 35 37 38 40 41 42 43 43 43 43 42 42 42 43 43 41 40 39 39 38 37 36 35 35 35 34 34 33 32 30 28 28
28 28 27 26 26 27 28 28 29 30 32 34 36 37 39 41 43 45 46 46 47 46 46 46 46 46 44 41 38 37 37 36 34 33 34 34 34 34 33 34 33 31 31
27 28 26 25 26 25 25 25 25 27 28 30 32 34 35 37 39 40 40 41 43 44 45 45 44 43 41 38 36 35 35 34 32 31 32 33 33 33 34 35 36 35 36
14 17 19 21 22 21 22 22 24 25 27 28 30 32 33 35 36 35 35 35 35 34 33 33 33 34 35 35 36 36 37 36 35 34 33 33 32 33 34 34 34 35 35
16 17 18 19 19 19 19 22 24 25 25 25 25 25 26 26 26 26 25 26 26 26 25 25 26 27 29 32 34 36 37 36 36 36 37 37 36 36 36 35 35 36 36
17 18 18 19 20 20 21 21 22 22 22 21 19 18 16 15 14 15 16 18 19 20 19 19 20 21 24 27 30 32 34 35 36 35 35 36 36 36 36 36 37 37 37
16 18 19 21 21 21 20 18 17 17 16 16 16 16 16 15 15 15 16 17 19 19 18 18 18 19 20 22 24 27 29 31 33 35 35 34 36 37 37 37 39 40 40
15 18 19 20 20 18 16 15 15 14 12 12 13 15 17 19 19 19 20 21 22 22 22 22 22 23 24 24 23 23 24 25 25 26 28 30 32 34 36 38 41 43 44
10 12 13 14 15 16 16 16 16 15 14 13 14 16 18 19 20 20 22 23 23 24 24 25 27 27 28 29 30 30 29 28 27 27 27 27 27 28 29 30 32 35 39
8 8 9 10 11 13 15 16 17 17 17 16 16 17 18 19 20 21 22 23 25 25 27 29 31 31 32 33 35 36 36 35 33 33 33 33 32 31 31 30 30 30 31
Wind_Direction
259 260 262 262 261 261 261 261 261 262 263 265 267 268 269 268 269 270 263 264 263 256 255 257 260 265 272 277 280 283 282 280 280 283 287 289 289 291 296 296 296 297 297
257 256 257 259 259 260 260 259 260 262 263 265 267 269 271 273 273 278 277 272 267 259 258 258 259 263 268 274 278 280 280 279 279 282 286 287 286 288 292 293 292 293 293
252 250 251 253 254 256 258 260 261 262 264 266 268 269 271 275 278 280 284 283 274 267 264 264 263 262 264 271 276 280 280 277 275 277 281 285 289 292 293 294 292 289 289
249 249 250 252 254 254 255 257 259 262 265 269 271 272 273 277 282 285 286 284 277 266 262 263 263 263 264 270 277 280 276 270 271 273 277 281 287 294 298 297 294 288 286
251 253 255 257 257 256 255 257 260 264 267 270 273 275 278 280 282 283 285 284 278 268 260 259 259 260 262 269 276 274 264 262 268 273 277 281 286 291 295 296 294 289 285
253 256 258 259 260 259 258 260 264 267 269 271 275 279 281 280 277 276 279 279 277 270 258 253 255 257 260 266 272 267 258 259 266 272 277 281 284 288 290 289 288 286 284
253 256 259 261 263 263 263 263 264 266 269 273 276 278 279 276 271 268 269 273 273 262 247 245 249 253 257 262 266 262 257 260 266 271 275 279 283 286 287 286 284 283 281
258 260 262 263 264 264 263 262 264 268 273 278 279 278 275 269 262 260 262 263 258 245 235 240 245 249 256 261 262 259 260 264 268 272 276 279 284 286 287 284 280 276 276
258 260 261 263 264 263 260 260 265 270 276 280 280 275 266 256 252 249 248 244 234 228 230 237 243 250 256 260 260 260 264 268 271 274 277 281 284 284 283 282 277 273 271
255 257 260 261 261 260 258 260 263 266 270 272 269 262 253 243 237 231 227 223 221 226 234 240 244 248 255 259 260 263 268 272 276 278 278 278 279 279 279 279 275 271 268
253 254 256 258 258 257 257 258 259 258 263 263 257 246 240 232 233 230 229 231 234 239 241 242 246 251 256 261 265 269 271 274 276 277 277 277 276 276 275 274 273 270 267
252 252 253 255 254 252 252 254 254 254 259 258 250 245 243 242 244 245 243 244 246 248 249 251 254 257 260 263 266 269 272 273 273 272 273 275 276 274 274 272 271 269 267
248 247 249 250 250 249 250 250 250 251 254 258 258 255 252 250 250 251 252 252 254 256 259 261 262 262 263 263 265 269 271 271 270 270 271 271 272 271 271 270 269 267 264
248 246 246 246 244 245 248 250 249 250 253 257 259 259 258 258 257 256 257 258 259 260 263 265 266 266 265 265 266 269 269 267 267 268 269 268 269 269 269 269 266 265 263
245 243 242 242 244 249 254 259 260 259 258 260 259 258 260 262 263 262 261 262 264 265 265 266 266 266 266 266 267 268 268 267 268 269 267 265 267 270 271 268 265 264 262
240 240 243 247 253 257 261 266 268 267 265 264 261 260 260 261 262 262 262 262 263 264 265 267 267 267 266 266 267 267 268 268 268 268 266 264 265 267 269 267 264 262 258
246 248 253 257 259 260 262 265 267 267 267 265 263 262 262 261 261 261 262 261 261 261 262 263 265 266 267 267 266 266 267 267 267 266 264 264 262 261 262 260 259 256 252
249 250 255 258 262 265 267 270 270 268 266 265 264 264 263 262 262 262 263 262 262 262 262 262 262 263 264 264 264 264 263 263 262 261 258 257 257 259 259 256 255 254 252
254 252 255 261 267 269 271 273 274 274 273 271 270 269 267 267 266 266 265 265 264 264 265 265 265 264 263 261 258 256 256 255 254 255 255 254 255 256 256 254 254 253 253
266 264 264 265 266 269 272 276 278 278 276 273 270 269 268 268 268 267 265 264 263 263 264 265 265 263 261 258 255 252 251 250 251 253 255 254 253 253 252 251 253 253 251
271 268 262 259 262 268 277 284 286 284 280 274 269 268 269 268 266 264 260 258 258 258 261 263 263 262 261 258 256 253 250 250 250 251 252 253 255 255 253 253 256 257 253
274 267 260 260 266 275 284 288 288 285 279 272 267 267 268 265 261 258 257 259 262 265 267 267 265 264 265 262 259 256 255 253 252 250 250 250 253 256 256 256 257 258 255
271 267 267 271 277 283 287 287 288 287 280 272 267 265 264 263 262 262 263 267 270 272 273 273 271 268 269 269 267 263 262 259 256 252 250 250 253 256 257 258 259 260 258
277 278 281 283 284 281 277 276 281 286 287 280 272 268 265 264 262 264 267 269 270 271 272 274 275 273 273 273 273 274 273 272 268 263 260 258 259 260 261 262 262 261 261
301 299 296 291 285 279 276 276 278 279 281 283 279 275 275 275 273 271 271 269 269 271 273 275 273 271 273 275 275 274 276 277 274 269 267 267 266 265 266 267 266 264 261
343 331 320 305 294 287 283 281 277 276 277 278 280 281 282 282 281 279 276 272 272 269 266 265 262 261 265 269 272 274 275 276 273 269 267 266 266 266 266 267 269 269 265
Height
5883 5884 5883 5882 5882 5883 5883 5882 5882 5881 5879 5877 5876 5876 5876 5875 5875 5874 5874 5874 5874 5874 5876 5877 5877 5878 5879 5879 5879 5879 5879 5878 5877 5876 5875 5874 5873 5871 5870 5869 5866 5864 5862
5875 5875 5875 5874 5875 5875 5874 5874 5874 5873 5872 5870 5868 5868 5867 5868 5869 5868 5867 5867 5868 5869 5870 5871 5871 5871 5872 5872 5872 5872 5872 5872 5871 5870 5869 5868 5868 5867 5866 5864 5862 5860 5857
5865 5865 5865 5866 5866 5866 5866 5867 5867 5866 5864 5862 5860 5859 5859 5859 5860 5861 5861 5860 5860 5862 5864 5864 5864 5864 5865 5865 5865 5865 5866 5866 5865 5864 5864 5863 5862 5861 5861 5860 5858 5856 5853
5855 5856 5857 5857 5857 5857 5858 5858 5857 5856 5855 5853 5851 5850 5851 5851 5850 5851 5852 5852 5852 5853 5854 5854 5855 5856 5857 5857 5857 5858 5858 5859 5859 5858 5858 5857 5856 5855 5854 5853 5852 5851 5849
5846 5847 5848 5849 5849 5849 5849 5849 5848 5848 5846 5843 5841 5840 5841 5841 5840 5840 5840 5840 5840 5841 5842 5843 5845 5847 5849 5849 5850 5851 5850 5850 5851 5852 5852 5852 5851 5849 5848 5846 5845 5844 5843
5838 5837 5838 5838 5839 5840 5840 5840 5839 5838 5836 5834 5833 5831 5831 5830 5829 5830 5830 5830 5829 5828 5829 5831 5835 5838 5841 5842 5842 5842 5842 5843 5844 5844 5844 5844 5845 5844 5842 5840 5838 5837 5837
5828 5828 5828 5828 5829 5829 5830 5830 5829 5827 5826 5825 5824 5822 5821 5819 5819 5819 5820 5819 5818 5816 5818 5822 5826 5830 5832 5833 5834 5834 5834 5835 5835 5836 5836 5836 5837 5836 5835 5833 5831 5830 5830
5817 5817 5817 5817 5818 5819 5819 5819 5819 5818 5816 5814 5813 5811 5809 5808 5808 5809 5809 5808 5808 5808 5810 5814 5818 5822 5824 5825 5826 5826 5827 5827 5827 5828 5828 5828 5828 5827 5826 5825 5824 5822 5821
5804 5805 5806 5807 5807 5808 5809 5810 5810 5809 5807 5805 5803 5800 5799 5798 5798 5798 5798 5798 5798 5801 5804 5808 5811 5814 5816 5817 5818 5818 5819 5819 5820 5821 5821 5820 5819 5818 5818 5817 5816 5816 5815
5793 5795 5796 5797 5798 5798 5799 5800 5802 5802 5801 5798 5795 5793 5792 5791 5791 5791 5791 5792 5793 5795 5798 5802 5804 5806 5807 5808 5810 5810 5811 5812 5813 5813 5813 5812 5812 5811 5810 5810 5809 5808 5808
5783 5785 5787 5788 5789 5789 5790 5792 5793 5794 5793 5791 5788 5787 5786 5786 5786 5786 5786 5787 5788 5790 5792 5794 5796 5798 5799 5800 5801 5802 5804 5805 5805 5805 5805 5805 5804 5803 5802 5802 5802 5802 5801
5773 5775 5776 5778 5779 5780 5781 5783 5785 5786 5786 5784 5783 5782 5782 5782 5782 5782 5782 5783 5784 5785 5786 5788 5789 5791 5792 5793 5794 5795 5795 5796 5797 5797 5798 5797 5797 5796 5796 5795 5795 5795 5795
5764 5766 5767 5770 5771 5773 5774 5776 5777 5779 5779 5779 5779 5779 5779 5779 5778 5778 5778 5779 5779 5779 5780 5781 5782 5784 5785 5786 5787 5787 5788 5788 5788 5789 5790 5790 5789 5789 5789 5788 5787 5787 5788
5757 5758 5760 5762 5764 5766 5768 5769 5771 5772 5772 5773 5773 5774 5774 5774 5774 5774 5774 5774 5774 5774 5774 5775 5776 5778 5778 5779 5780 5780 5780 5780 5780 5781 5781 5781 5781 5781 5781 5780 5780 5780 5780
5750 5752 5754 5756 5758 5760 5761 5762 5763 5764 5765 5765 5766 5766 5767 5768 5768 5767 5767 5767 5767 5768 5768 5768 5768 5769 5769 5770 5770 5770 5771 5771 5772 5772 5772 5772 5773 5773 5773 5773 5772 5772 5773
5744 5746 5748 5751 5752 5753 5755 5755 5755 5755 5755 5756 5756 5757 5757 5758 5758 5758 5758 5758 5759 5759 5759 5759 5759 5759 5759 5760 5759 5759 5760 5761 5761 5762 5763 5764 5765 5765 5765 5765 5765 5765 5765
5738 5740 5742 5744 5746 5746 5747 5747 5746 5746 5746 5745 5745 5745 5745 5745 5746 5746 5747 5747 5747 5748 5748 5748 5748 5748 5748 5749 5749 5749 5750 5751 5752 5753 5754 5755 5756 5757 5757 5758 5758 5758 5758
5731 5733 5735 5737 5738 5738 5738 5737 5737 5736 5735 5734 5734 5733 5733 5733 5733 5733 5733 5734 5734 5735 5735 5736 5736 5737 5737 5738 5739 5740 5740 5741 5742 5743 5745 5747 5747 5748 5749 5750 5750 5751 5751
5723 5725 5727 5729 5729 5729 5729 5728 5727 5727 5726 5725 5724 5723 5723 5723 5722 5722 5722 5722 5722 5722 5723 5723 5724 5725 5725 5726 5728 5729 5731 5731 5732 5734 5735 5736 5738 5739 5740 5741 5742 5742 5743
5718 5719 5720 5721 5721 5721 5721 5720 5719 5718 5717 5716 5715 5714 5714 5713 5712 5712 5712 5712 5712 5713 5713 5713 5713 5713 5714 5715 5717 5719 5720 5721 5722 5724 5725 5726 5727 5728 5730 5731 5732 5733 5733
5713 5713 5714 5714 5715 5714 5714 5712 5710 5709 5708 5707 5706 5705 5705 5704 5703 5703 5703 5704 5704 5705 5705 5705 5705 5705 5705 5705 5706 5708 5709 5710 5711 5712 5714 5716 5717 5718 5719 5720 5721 5723 5723
5706 5707 5708 5709 5708 5708 5706 5704 5702 5700 5699 5699 5698 5698 5698 5697 5697 5697 5698 5698 5698 5698 5698 5698 5698 5697 5697 5697 5697 5698 5699 5700 5701 5702 5703 5705 5706 5707 5708 5710 5711 5712 5714
5700 5701 5701 5701 5700 5699 5699 5697 5696 5695 5693 5693 5692 5692 5692 5693 5693 5692 5692 5693 5693 5693 5693 5693 5692 5691 5691 5691 5690 5691 5691 5691 5691 5692 5692 5694 5695 5696 5698 5699 5700 5702 5703
5695 5695 5694 5693 5692 5692 5691 5691 5690 5690 5688 5688 5687 5687 5687 5687 5687 5687 5687 5687 5687 5687 5687 5686 5686 5685 5684 5683 5683 5682 5682 5682 5682 5683 5683 5684 5684 5685 5686 5687 5689 5690 5692
5691 5690 5688 5687 5687 5686 5686 5686 5685 5685 5684 5683 5682 5682 5681 5681 5681 5681 5680 5680 5680 5679 5679 5678 5678 5677 5676 5675 5675 5674 5674 5674 5675 5675 5675 5675 5676 5676 5676 5677 5677 5678 5679
5688 5686 5685 5683 5683 5682 5681 5681 5680 5679 5679 5678 5678 5677 5676 5675 5675 5674 5673 5672 5672 5672 5671 5671 5670 5669 5668 5667 5666 5665 5665 5664 5665 5665 5666 5666 5666 5666 5667 5667 5668 5668 5669